Find Starlink 11085

NORAD ID: 59425 Int'l Des: 2024-065 Owner: SPXS Country: US Constellation: starlink operational
LEOCIRCULAR

当前视图

正在加载3D地球...

About Starlink 11085

Starlink 11085 (NORAD 59425) is a starlink constellation satellite (v2 mini d2c) launched Apr 7, 2024 by SPXS of US. It operates in LEO, CIRCULAR orbit with a mass of 960.00 kg.

关于 Starlink 11085

正在加载描述...

即将过境

Passes for default location (London). Set your location on the main map for personalized predictions.

高度历史

Loading altitude history...

两行轨道根数

1 59425U 24065E 26171.38398213 .00000822 00000-0 11649-4 0 9993
2 59425 53.1594 307.5477 0001364 93.3913 266.7261 15.69710494127601
Epoch: Jun 20, 2026 • Age: 24 hours

当前状态

高度 363.1 km
速度 7.69 km/s
星下点 -12.20°S, 87.9°E
发射日期 Apr 7, 2024
运行时间 2.2 years
类型 internet

技术详情

分类 Payload
质量 960.00 kg
干质量 910.00 kg
总质量 960.00 kg
长度 0.30 m
直径 4.10 m
跨度 29.00 m
形状 Box + pan
制造商 SPXS
平台类型 Starlink V2MD
阶段状态 In Orbit
所有者/国家 SPXS/US

Most Searched